| time (UTC) | temp F | wind direction | speed knots | gust knots | rain 1hr in | rain 24hr in | rain mn in | humidity % | barometer mb |
| 20260508115435 | 51 | 158 | 1.7 | 1.7 | 0.00 | 0.00 | 0.00 | 83 | 1020.4 |
| 20260508114931 | 51 | 216 | 1.7 | 2.6 | 0.00 | 0.00 | 0.00 | 84 | 1020.2 |
| 20260508114428 | 51 | 186 | 1.7 | 4.3 | 0.00 | 0.00 | 0.00 | 84 | 1020.2 |
| 20260508113924 | 51 | 182 | 0.9 | 4.3 | 0.00 | 0.00 | 0.00 | 84 | 1020.5 |
| 20260508113422 | 51 | 192 | 4.3 | 4.3 | 0.00 | 0.00 | 0.00 | 85 | 1020.3 |
| 20260508112919 | 51 | 180 | 1.7 | 4.3 | 0.00 | 0.00 | 0.00 | 85 | 1020.3 |
| 20260508112416 | 51 | 174 | 0.9 | 4.3 | 0.00 | 0.00 | 0.00 | 84 | 1020.1 |
| 20260508111913 | 51 | 188 | 2.6 | 4.3 | 0.00 | 0.00 | 0.00 | 84 | 1019.8 |
| 20260508111410 | 51 | 224 | 4.3 | 6.1 | 0.00 | 0.00 | 0.00 | 84 | 1020.1 |
| 20260508110907 | 51 | 185 | 0.9 | 1.7 | 0.00 | 0.00 | 0.00 | 85 | 1020.2 |
| 20260508110405 | 51 | 212 | 3.5 | 4.3 | 0.00 | 0.00 | 0.00 | 85 | 1020.1 |
| 20260508105904 | 51 | 140 | 2.6 | 2.6 | 0.00 | 0.00 | 0.00 | 86 | 1019.9 |
| 20260508105400 | 51 | 191 | 1.7 | 2.6 | 0.00 | 0.00 | 0.00 | 87 | 1019.6 |
| 20260508104858 | 51 | 176 | 1.7 | 1.7 | 0.00 | 0.00 | 0.00 | 88 | 1020.0 |
| 20260508104355 | 51 | 146 | 0.0 | 1.7 | 0.00 | 0.00 | 0.00 | 90 | 1019.6 |
| 20260508103852 | 50 | 182 | 1.7 | 2.6 | 0.00 | 0.00 | 0.00 | 92 | 1019.7 |
| 20260508103349 | 50 | 179 | 1.7 | 2.6 | 0.00 | 0.00 | 0.00 | 93 | 1019.7 |
| 20260508102846 | 50 | 167 | 0.9 | 2.6 | 0.00 | 0.00 | 0.00 | 94 | 1019.6 |
| 20260508102344 | 49 | 167 | 1.7 | 2.6 | 0.00 | 0.00 | 0.00 | 95 | 1019.3 |
| 20260508101841 | 49 | 184 | 0.0 | 0.9 | 0.00 | 0.00 | 0.00 | 95 | 1019.8 |
| 20260508101339 | 48 | 163 | 0.0 | 0.0 | 0.00 | 0.00 | 0.00 | 95 | 1019.7 |
| 20260508100836 | 48 | 164 | 0.0 | 1.7 | 0.00 | 0.00 | 0.00 | 95 | 1019.8 |
| 20260508100335 | 48 | 150 | 0.0 | 0.0 | 0.00 | 0.00 | 0.00 | 95 | 1019.5 |
| 20260508095830 | 48 | 156 | 0.0 | 0.0 | 0.00 | 0.00 | 0.00 | 95 | 1019.5 |
| 20260508095328 | 48 | 159 | 0.0 | 0.0 | 0.00 | 0.00 | 0.00 | 95 | 1019.6 |
| 20260508094825 | 48 | 152 | 0.0 | 0.0 | 0.00 | 0.00 | 0.00 | 95 | 1019.3 |
| 20260508094322 | 48 | 152 | 0.0 | 0.0 | 0.00 | 0.00 | 0.00 | 94 | 1019.8 |
| 20260508093819 | 48 | 154 | 0.0 | 0.0 | 0.00 | 0.00 | 0.00 | 94 | 1019.5 |
| 20260508093316 | 48 | 155 | 0.0 | 0.0 | 0.00 | 0.00 | 0.00 | 94 | 1019.6 |
| 20260508092813 | 48 | 155 | 0.0 | 0.0 | 0.00 | 0.00 | 0.00 | 94 | 1019.5 |
| 20260508092313 | 48 | 149 | 0.0 | 0.0 | 0.00 | 0.00 | 0.00 | 94 | 1019.6 |
| 20260508091809 | 48 | 155 | 0.0 | 0.0 | 0.00 | 0.00 | 0.00 | 94 | 1019.5 |
| 20260508091305 | 48 | 151 | 0.0 | 0.0 | 0.00 | 0.00 | 0.00 | 94 | 1019.5 |
| 20260508090803 | 48 | 151 | 0.0 | 0.0 | 0.00 | 0.00 | 0.00 | 94 | 1019.7 |
| 20260508090301 | 48 | 149 | 0.0 | 0.0 | 0.00 | 0.00 | 0.00 | 94 | 1019.3 |
| 20260508085757 | 48 | 149 | 0.0 | 0.0 | 0.00 | 0.00 | 0.00 | 93 | 1019.5 |
| 20260508085254 | 49 | 149 | 0.0 | 0.0 | 0.00 | 0.00 | 0.00 | 93 | 1019.5 |
| 20260508084750 | 49 | 149 | 0.0 | 0.0 | 0.00 | 0.00 | 0.00 | 93 | 1019.4 |
| 20260508084247 | 49 | 149 | 0.0 | 0.0 | 0.00 | 0.00 | 0.00 | 93 | 1019.2 |
| 20260508083745 | 49 | 149 | 0.0 | 0.0 | 0.00 | 0.00 | 0.00 | 93 | 1019.3 |
| 20260508083243 | 49 | 149 | 0.0 | 0.0 | 0.00 | 0.00 | 0.00 | 93 | 1019.3 |
| 20260508082742 | 49 | 149 | 0.0 | 0.0 | 0.00 | 0.00 | 0.00 | 93 | 1019.4 |
| 20260508082240 | 49 | 148 | 0.0 | 0.0 | 0.00 | 0.00 | 0.00 | 92 | 1019.1 |
| 20260508081737 | 49 | 149 | 0.0 | 0.0 | 0.00 | 0.00 | 0.00 | 92 | 1019.2 |
| 20260508081234 | 49 | 148 | 0.0 | 0.0 | 0.00 | 0.00 | 0.00 | 92 | 1019.3 |
| 20260508080731 | 49 | 149 | 0.0 | 0.0 | 0.00 | 0.00 | 0.00 | 92 | 1019.5 |
| 20260508080229 | 49 | 148 | 0.0 | 0.0 | 0.00 | 0.00 | 0.00 | 91 | 1019.2 |
| 20260508075725 | 49 | 148 | 0.0 | 0.0 | 0.00 | 0.00 | 0.00 | 91 | 1019.3 |
| 20260508075222 | 49 | 154 | 0.0 | 0.0 | 0.00 | 0.00 | 0.00 | 91 | 1019.4 |
| 20260508074720 | 49 | 148 | 0.0 | 0.0 | 0.00 | 0.00 | 0.00 | 91 | 1019.1 |
| 20260508074218 | 49 | 137 | 0.0 | 0.0 | 0.00 | 0.00 | 0.00 | 91 | 1019.3 |
| 20260508073714 | 49 | 136 | 0.0 | 0.0 | 0.00 | 0.00 | 0.00 | 91 | 1019.1 |
| 20260508073212 | 49 | 148 | 0.0 | 0.0 | 0.00 | 0.00 | 0.00 | 90 | 1019.3 |
| 20260508072708 | 49 | 152 | 0.0 | 0.0 | 0.00 | 0.00 | 0.00 | 90 | 1019.4 |
| 20260508072205 | 49 | 145 | 0.0 | 0.0 | 0.00 | 0.00 | 0.00 | 90 | 1019.3 |
| 20260508071702 | 49 | 145 | 0.0 | 0.0 | 0.00 | 0.00 | 0.00 | 89 | 1019.5 |
| 20260508071201 | 49 | 163 | 0.0 | 0.0 | 0.00 | 0.00 | 0.00 | 89 | 1019.4 |
| 20260508070657 | 49 | 145 | 0.0 | 0.0 | 0.00 | 0.00 | 0.00 | 89 | 1019.5 |
| 20260508070156 | 49 | 149 | 0.0 | 0.0 | 0.00 | 0.00 | 0.00 | 89 | 1019.5 |
| 20260508065653 | 49 | 149 | 0.0 | 0.0 | 0.00 | 0.00 | 0.00 | 88 | 1019.5 |
| 20260508065151 | 50 | 148 | 0.0 | 0.0 | 0.00 | 0.00 | 0.00 | 88 | 1019.6 |
| 20260508064648 | 50 | 149 | 0.0 | 0.0 | 0.00 | 0.00 | 0.00 | 87 | 1019.5 |
| 20260508064146 | 50 | 149 | 0.0 | 0.0 | 0.00 | 0.00 | 0.00 | 87 | 1019.5 |
| 20260508063643 | 50 | 148 | 0.0 | 0.0 | 0.00 | 0.00 | 0.00 | 87 | 1019.3 |
| 20260508063141 | 50 | 148 | 0.0 | 0.0 | 0.00 | 0.00 | 0.00 | 87 | 1019.3 |
| 20260508062638 | 50 | 149 | 0.0 | 0.0 | 0.00 | 0.00 | 0.00 | 87 | 1019.2 |
| 20260508062135 | 50 | 148 | 0.0 | 0.0 | 0.00 | 0.00 | 0.00 | 88 | 1019.2 |
| 20260508061632 | 50 | 148 | 0.0 | 0.0 | 0.00 | 0.00 | 0.00 | 88 | 1019.4 |
| 20260508061130 | 50 | 149 | 0.0 | 0.0 | 0.00 | 0.00 | 0.00 | 88 | 1019.3 |
| 20260508060626 | 50 | 149 | 0.0 | 0.0 | 0.00 | 0.00 | 0.00 | 87 | 1019.4 |
| 20260508060124 | 50 | 149 | 0.0 | 0.0 | 0.00 | 0.00 | 0.00 | 87 | 1019.4 |
| 20260508055619 | 50 | 149 | 0.0 | 0.0 | 0.00 | 0.00 | 0.00 | 86 | 1019.5 |
| 20260508055116 | 51 | 148 | 0.0 | 0.0 | 0.00 | 0.00 | 0.00 | 86 | 1019.1 |
| 20260508054613 | 51 | 157 | 0.0 | 0.0 | 0.00 | 0.00 | 0.00 | 85 | 1019.5 |
| 20260508054110 | 51 | 165 | 0.0 | 0.0 | 0.00 | 0.00 | 0.00 | 85 | 1019.5 |
| 20260508053607 | 51 | 149 | 0.0 | 0.0 | 0.00 | 0.00 | 0.00 | 85 | 1019.5 |
| 20260508053105 | 51 | 149 | 0.0 | 0.0 | 0.00 | 0.00 | 0.00 | 84 | 1019.4 |
| 20260508052602 | 52 | 149 | 0.0 | 0.0 | 0.00 | 0.00 | 0.00 | 84 | 1019.4 |
| 20260508052059 | 52 | 149 | 0.0 | 0.0 | 0.00 | 0.00 | 0.00 | 83 | 1019.5 |
| 20260508051555 | 52 | 149 | 0.0 | 0.0 | 0.00 | 0.00 | 0.00 | 83 | 1019.4 |
| 20260508051050 | 52 | 149 | 0.0 | 0.0 | 0.00 | 0.00 | 0.00 | 83 | 1019.7 |
| 20260508050547 | 52 | 149 | 0.0 | 0.0 | 0.00 | 0.00 | 0.00 | 83 | 1019.5 |
| 20260508050044 | 52 | 149 | 0.0 | 0.0 | 0.00 | 0.00 | 0.00 | 83 | 1019.5 |
| 20260508045540 | 52 | 149 | 0.0 | 0.0 | 0.00 | 0.00 | 0.00 | 83 | 1019.6 |
| 20260508045038 | 52 | 149 | 0.0 | 0.0 | 0.00 | 0.00 | 0.00 | 82 | 1019.5 |
| 20260508044535 | 53 | 149 | 0.0 | 0.0 | 0.00 | 0.00 | 0.00 | 82 | 1019.6 |
| 20260508044031 | 53 | 149 | 0.0 | 0.0 | 0.00 | 0.00 | 0.00 | 82 | 1019.8 |
| 20260508043528 | 53 | 149 | 0.0 | 0.0 | 0.00 | 0.00 | 0.00 | 81 | 1019.7 |
| 20260508043026 | 53 | 149 | 0.0 | 0.0 | 0.00 | 0.00 | 0.00 | 80 | 1019.7 |
| 20260508042522 | 53 | 149 | 0.0 | 0.0 | 0.00 | 0.00 | 0.00 | 80 | 1019.7 |
| 20260508042020 | 54 | 149 | 0.0 | 0.0 | 0.00 | 0.00 | 0.00 | 80 | 1019.7 |
| 20260508041515 | 54 | 149 | 0.0 | 0.0 | 0.00 | 0.00 | 0.00 | 80 | 1019.6 |
| 20260508041012 | 54 | 149 | 0.0 | 0.0 | 0.00 | 0.00 | 0.00 | 79 | 1019.7 |
| 20260508040509 | 55 | 149 | 0.0 | 0.0 | 0.00 | 0.00 | 0.00 | 79 | 1019.7 |
| 20260508040007 | 55 | 149 | 0.0 | 0.0 | 0.00 | 0.00 | 0.00 | 79 | 1019.5 |
| 20260508035504 | 55 | 149 | 0.0 | 0.0 | 0.00 | 0.00 | 0.00 | 79 | 1019.8 |
| 20260508035000 | 55 | 149 | 0.0 | 0.0 | 0.00 | 0.00 | 0.00 | 78 | 1019.5 |
| 20260508034458 | 56 | 149 | 0.0 | 0.0 | 0.00 | 0.00 | 0.00 | 77 | 1019.6 |
| 20260508033954 | 56 | 149 | 0.0 | 0.0 | 0.00 | 0.00 | 0.00 | 76 | 1019.3 |
| 20260508033452 | 57 | 149 | 0.0 | 0.0 | 0.00 | 0.00 | 0.00 | 75 | 1019.4 |
| 20260508032950 | 57 | 149 | 0.0 | 0.0 | 0.00 | 0.00 | 0.00 | 74 | 1019.5 |
| 20260508032447 | 57 | 149 | 0.0 | 0.0 | 0.00 | 0.00 | 0.00 | 72 | 1019.4 |
| 20260508031944 | 58 | 149 | 0.0 | 0.0 | 0.00 | 0.00 | 0.00 | 71 | 1019.2 |
| 20260508031441 | 58 | 149 | 0.0 | 0.0 | 0.00 | 0.00 | 0.00 | 71 | 1019.4 |
| 20260508030937 | 58 | 149 | 0.0 | 0.0 | 0.00 | 0.00 | 0.00 | 70 | 1019.5 |
| 20260508030434 | 59 | 149 | 0.0 | 0.0 | 0.00 | 0.00 | 0.00 | 70 | 1019.4 |
| 20260508025931 | 59 | 150 | 0.0 | 0.0 | 0.00 | 0.00 | 0.00 | 69 | 1019.3 |
| 20260508025428 | 59 | 148 | 0.0 | 0.0 | 0.00 | 0.00 | 0.00 | 69 | 1019.4 |
| 20260508024919 | 60 | 150 | 0.0 | 0.0 | 0.00 | 0.00 | 0.00 | 69 | 1019.4 |
| 20260508024416 | 60 | 138 | 0.0 | 0.0 | 0.00 | 0.00 | 0.00 | 68 | 1019.5 |
| 20260508023913 | 61 | 157 | 0.0 | 0.0 | 0.00 | 0.00 | 0.00 | 68 | 1019.7 |
| 20260508023410 | 62 | 150 | 0.0 | 0.0 | 0.00 | 0.00 | 0.00 | 66 | 1019.5 |
| 20260508022906 | 63 | 158 | 0.0 | 0.0 | 0.00 | 0.00 | 0.00 | 62 | 1019.6 |
| 20260508022401 | 63 | 161 | 0.0 | 0.9 | 0.00 | 0.00 | 0.00 | 61 | 1019.6 |
| 20260508021858 | 63 | 164 | 0.0 | 1.7 | 0.00 | 0.00 | 0.00 | 60 | 1019.5 |
| 20260508021349 | 64 | 164 | 1.7 | 1.7 | 0.00 | 0.00 | 0.00 | 59 | 1019.7 |
| 20260508020845 | 64 | 168 | 0.9 | 1.7 | 0.00 | 0.00 | 0.00 | 54 | 1019.7 |
| 20260508020343 | 64 | 215 | 2.6 | 4.3 | 0.00 | 0.00 | 0.00 | 55 | 1019.8 |
| 20260508015840 | 64 | 199 | 1.7 | 1.7 | 0.00 | 0.00 | 0.00 | 57 | 1019.6 |
| 20260508015338 | 64 | 171 | 2.6 | 5.2 | 0.00 | 0.00 | 0.00 | 57 | 1020.0 |
| 20260508014834 | 64 | 172 | 2.6 | 6.1 | 0.00 | 0.00 | 0.00 | 56 | 1019.8 |
| 20260508014332 | 64 | 183 | 0.9 | 2.6 | 0.00 | 0.00 | 0.00 | 56 | 1019.8 |
| 20260508013831 | 64 | 151 | 1.7 | 4.3 | 0.00 | 0.00 | 0.00 | 55 | 1020.1 |
| 20260508013328 | 64 | 173 | 0.9 | 1.7 | 0.00 | 0.00 | 0.00 | 56 | 1019.9 |
| 20260508012826 | 64 | 155 | 0.9 | 1.7 | 0.00 | 0.00 | 0.00 | 54 | 1020.0 |
| 20260508012323 | 65 | 169 | 1.7 | 1.7 | 0.00 | 0.00 | 0.00 | 52 | 1020.1 |
| 20260508011820 | 66 | 196 | 2.6 | 4.3 | 0.00 | 0.00 | 0.00 | 51 | 1020.0 |
| 20260508011318 | 66 | 208 | 1.7 | 2.6 | 0.00 | 0.00 | 0.00 | 51 | 1019.9 |
| 20260508010815 | 65 | 206 | 2.6 | 2.6 | 0.00 | 0.00 | 0.00 | 53 | 1020.0 |
| 20260508010313 | 65 | 171 | 1.7 | 2.6 | 0.00 | 0.00 | 0.00 | 53 | 1020.1 |
| 20260508005809 | 65 | 209 | 2.6 | 4.3 | 0.00 | 0.00 | 0.00 | 53 | 1020.2 |
| 20260508005306 | 65 | 194 | 0.9 | 4.3 | 0.00 | 0.00 | 0.00 | 53 | 1020.3 |
| 20260508004802 | 65 | 216 | 3.5 | 4.3 | 0.00 | 0.00 | 0.00 | 52 | 1020.4 |
| 20260508004258 | 66 | 199 | 0.9 | 2.6 | 0.00 | 0.00 | 0.00 | 52 | 1020.5 |
| 20260508003755 | 65 | 219 | 1.7 | 2.6 | 0.00 | 0.00 | 0.00 | 52 | 1020.2 |
| 20260508003253 | 66 | 208 | 2.6 | 4.3 | 0.00 | 0.00 | 0.00 | 52 | 1020.3 |
| 20260508002748 | 65 | 198 | 1.7 | 2.6 | 0.00 | 0.00 | 0.00 | 52 | 1020.3 |
| 20260508002246 | 66 | 212 | 2.6 | 4.3 | 0.00 | 0.00 | 0.00 | 51 | 1020.6 |
| 20260508001742 | 66 | 153 | 4.3 | 5.2 | 0.00 | 0.00 | 0.00 | 52 | 1020.5 |
| 20260508001237 | 65 | 163 | 0.0 | 1.7 | 0.00 | 0.00 | 0.00 | 53 | 1020.5 |
| 20260508000734 | 65 | 193 | 0.0 | 1.7 | 0.00 | 0.00 | 0.00 | 53 | 1020.5 |
| 20260508000234 | 66 | 154 | 4.3 | 6.1 | 0.00 | 0.00 | 0.00 | 51 | 1020.7 |
| 20260507235727 | 66 | 160 | 2.6 | 4.3 | 0.00 | 0.00 | 0.00 | 52 | 1020.6 |
| 20260507235225 | 66 | 103 | 2.6 | 4.3 | 0.00 | 0.00 | 0.00 | 51 | 1020.7 |
| 20260507234722 | 66 | 249 | 2.6 | 4.3 | 0.00 | 0.00 | 0.00 | 51 | 1020.6 |
| 20260507234219 | 66 | 195 | 2.6 | 2.6 | 0.00 | 0.00 | 0.00 | 51 | 1020.7 |
| 20260507233715 | 66 | 223 | 2.6 | 8.7 | 0.00 | 0.00 | 0.00 | 53 | 1020.7 |
| 20260507233213 | 66 | 212 | 0.9 | 2.6 | 0.00 | 0.00 | 0.00 | 52 | 1020.9 |
| 20260507232710 | 67 | 263 | 2.6 | 6.1 | 0.00 | 0.00 | 0.00 | 53 | 1021.0 |
| 20260507232207 | 65 | 205 | 2.6 | 8.7 | 0.00 | 0.00 | 0.00 | 53 | 1020.5 |
| 20260507231704 | 64 | 222 | 5.2 | 7.0 | 0.00 | 0.00 | 0.00 | 53 | 1020.9 |
| 20260507231201 | 64 | 197 | 3.5 | 6.1 | 0.00 | 0.00 | 0.00 | 53 | 1020.9 |
| 20260507230657 | 65 | 225 | 6.1 | 7.8 | 0.00 | 0.00 | 0.00 | 53 | 1021.2 |
| 20260507230155 | 64 | 215 | 2.6 | 5.2 | 0.00 | 0.00 | 0.00 | 53 | 1020.9 |
| 20260507225654 | 64 | 199 | 3.5 | 6.1 | 0.00 | 0.00 | 0.00 | 55 | 1021.1 |
| 20260507225151 | 63 | 243 | 2.6 | 6.1 | 0.00 | 0.00 | 0.00 | 55 | 1021.2 |
| 20260507224646 | 63 | 210 | 3.5 | 5.2 | 0.00 | 0.00 | 0.00 | 54 | 1021.2 |
| 20260507224143 | 65 | 139 | 3.5 | 6.1 | 0.00 | 0.00 | 0.00 | 52 | 1021.1 |
| 20260507223639 | 65 | 259 | 2.6 | 2.6 | 0.00 | 0.00 | 0.00 | 52 | 1021.4 |
| 20260507223137 | 64 | 190 | 1.7 | 4.3 | 0.00 | 0.00 | 0.00 | 53 | 1021.4 |
| 20260507222634 | 63 | 204 | 5.2 | 7.8 | 0.00 | 0.00 | 0.00 | 55 | 1021.4 |
| 20260507222130 | 64 | 221 | 2.6 | 6.1 | 0.00 | 0.00 | 0.00 | 55 | 1021.6 |
| 20260507221626 | 64 | 195 | 3.5 | 8.7 | 0.00 | 0.00 | 0.00 | 54 | 1021.5 |
| 20260507221123 | 63 | 233 | 3.5 | 4.3 | 0.00 | 0.00 | 0.00 | 56 | 1021.5 |
| 20260507220620 | 63 | 229 | 6.1 | 7.8 | 0.00 | 0.00 | 0.00 | 55 | 1021.6 |
| 20260507220118 | 62 | 184 | 4.3 | 6.1 | 0.00 | 0.00 | 0.00 | 55 | 1021.8 |
| 20260507215613 | 63 | 247 | 5.2 | 8.7 | 0.00 | 0.00 | 0.00 | 54 | 1021.5 |
| 20260507215112 | 62 | 249 | 5.2 | 7.8 | 0.00 | 0.00 | 0.00 | 55 | 1021.6 |
| 20260507214608 | 64 | 231 | 4.3 | 6.1 | 0.00 | 0.00 | 0.00 | 53 | 1021.6 |
| 20260507214104 | 63 | 186 | 4.3 | 5.2 | 0.00 | 0.00 | 0.00 | 55 | 1021.9 |
| 20260507213601 | 63 | 216 | 2.6 | 7.0 | 0.00 | 0.00 | 0.00 | 56 | 1021.8 |
| 20260507213058 | 63 | 219 | 2.6 | 7.0 | 0.00 | 0.00 | 0.00 | 56 | 1021.6 |
| 20260507212554 | 63 | 185 | 4.3 | 7.0 | 0.00 | 0.00 | 0.00 | 55 | 1021.7 |
| 20260507212051 | 63 | 205 | 2.6 | 6.1 | 0.00 | 0.00 | 0.00 | 56 | 1021.8 |
| 20260507211547 | 63 | 194 | 6.1 | 7.0 | 0.00 | 0.00 | 0.00 | 56 | 1022.0 |
| 20260507211043 | 63 | 196 | 7.0 | 7.8 | 0.00 | 0.00 | 0.00 | 56 | 1022.0 |
| 20260507210541 | 62 | 147 | 2.6 | 7.8 | 0.00 | 0.00 | 0.00 | 56 | 1022.0 |
| 20260507210038 | 62 | 218 | 4.3 | 6.1 | 0.00 | 0.00 | 0.00 | 56 | 1022.0 |
| 20260507205534 | 62 | 164 | 6.1 | 7.0 | 0.00 | 0.00 | 0.00 | 56 | 1022.3 |
| 20260507205031 | 62 | 223 | 2.6 | 4.3 | 0.00 | 0.00 | 0.00 | 57 | 1022.4 |
| 20260507204527 | 62 | 175 | 4.3 | 6.1 | 0.00 | 0.00 | 0.00 | 56 | 1022.4 |
| 20260507204025 | 62 | 181 | 3.5 | 5.2 | 0.00 | 0.00 | 0.00 | 57 | 1022.4 |
| 20260507203523 | 62 | 214 | 3.5 | 5.2 | 0.00 | 0.00 | 0.00 | 57 | 1022.5 |
| 20260507203020 | 62 | 213 | 2.6 | 6.1 | 0.00 | 0.00 | 0.00 | 56 | 1022.5 |
| 20260507202515 | 62 | 220 | 2.6 | 4.3 | 0.00 | 0.00 | 0.00 | 57 | 1022.6 |
| 20260507202012 | 61 | 248 | 4.3 | 5.2 | 0.00 | 0.00 | 0.00 | 59 | 1022.5 |
| 20260507201508 | 61 | 214 | 3.5 | 8.7 | 0.00 | 0.00 | 0.00 | 58 | 1022.8 |
| 20260507201004 | 61 | 225 | 2.6 | 7.0 | 0.00 | 0.00 | 0.00 | 59 | 1022.7 |
| 20260507200459 | 60 | 209 | 2.6 | 4.3 | 0.00 | 0.00 | 0.00 | 59 | 1022.7 |
| 20260507195955 | 60 | 162 | 2.6 | 5.2 | 0.00 | 0.00 | 0.00 | 59 | 1022.8 |
| 20260507195453 | 60 | 210 | 2.6 | 4.3 | 0.00 | 0.00 | 0.00 | 59 | 1022.7 |
| 20260507194950 | 60 | 239 | 2.6 | 5.2 | 0.00 | 0.00 | 0.00 | 59 | 1022.8 |
| 20260507194447 | 60 | 191 | 5.2 | 7.0 | 0.00 | 0.00 | 0.00 | 57 | 1022.8 |
| 20260507193942 | 60 | 222 | 2.6 | 5.2 | 0.00 | 0.00 | 0.00 | 58 | 1022.8 |
| 20260507193440 | 59 | 192 | 2.6 | 4.3 | 0.00 | 0.00 | 0.00 | 63 | 1022.8 |
| 20260507192937 | 58 | 178 | 3.5 | 4.3 | 0.00 | 0.00 | 0.00 | 63 | 1023.0 |
| 20260507192432 | 58 | 192 | 1.7 | 4.3 | 0.00 | 0.00 | 0.00 | 64 | 1022.8 |
| 20260507191930 | 58 | 202 | 2.6 | 4.3 | 0.00 | 0.00 | 0.00 | 65 | 1023.1 |
| 20260507191426 | 59 | 202 | 2.6 | 2.6 | 0.00 | 0.00 | 0.00 | 64 | 1023.0 |
| 20260507190922 | 58 | 206 | 2.6 | 4.3 | 0.00 | 0.00 | 0.00 | 66 | 1022.9 |
| 20260507190420 | 58 | 150 | 4.3 | 6.1 | 0.00 | 0.00 | 0.00 | 66 | 1023.1 |
| 20260507185919 | 58 | 283 | 5.2 | 6.1 | 0.00 | 0.00 | 0.00 | 64 | 1023.2 |
| 20260507185416 | 58 | 195 | 2.6 | 4.3 | 0.00 | 0.00 | 0.00 | 65 | 1023.0 |
| 20260507184913 | 58 | 172 | 2.6 | 5.2 | 0.00 | 0.00 | 0.00 | 65 | 1023.3 |
| 20260507184410 | 59 | 174 | 4.3 | 5.2 | 0.00 | 0.00 | 0.00 | 65 | 1023.2 |
| 20260507183908 | 60 | 192 | 3.5 | 5.2 | 0.00 | 0.00 | 0.00 | 61 | 1023.2 |
| 20260507183404 | 60 | 195 | 2.6 | 7.0 | 0.00 | 0.00 | 0.00 | 62 | 1023.3 |
| 20260507182902 | 59 | 152 | 0.9 | 5.2 | 0.00 | 0.00 | 0.00 | 63 | 1023.3 |
| 20260507182357 | 58 | 171 | 1.7 | 4.3 | 0.00 | 0.00 | 0.00 | 68 | 1023.2 |
| 20260507181854 | 59 | 237 | 2.6 | 5.2 | 0.00 | 0.00 | 0.00 | 65 | 1023.4 |
| 20260507181350 | 58 | 159 | 1.7 | 7.0 | 0.00 | 0.00 | 0.00 | 66 | 1023.3 |
| 20260507180847 | 57 | 127 | 2.6 | 4.3 | 0.00 | 0.00 | 0.00 | 68 | 1023.4 |
| 20260507180344 | 57 | 148 | 6.1 | 8.7 | 0.00 | 0.00 | 0.00 | 68 | 1023.4 |
| 20260507175839 | 56 | 189 | 3.5 | 5.2 | 0.00 | 0.00 | 0.00 | 70 | 1023.6 |
| 20260507175337 | 56 | 246 | 4.3 | 6.1 | 0.00 | 0.00 | 0.00 | 70 | 1023.6 |
| 20260507174834 | 56 | 209 | 2.6 | 2.6 | 0.00 | 0.00 | 0.00 | 71 | 1023.7 |
| 20260507174331 | 55 | 199 | 1.7 | 2.6 | 0.00 | 0.00 | 0.00 | 72 | 1023.5 |
| 20260507173829 | 55 | 249 | 3.5 | 5.2 | 0.00 | 0.00 | 0.00 | 71 | 1023.6 |
| 20260507173326 | 55 | 207 | 2.6 | 5.2 | 0.00 | 0.00 | 0.00 | 72 | 1023.4 |
| 20260507172822 | 56 | 190 | 1.7 | 5.2 | 0.00 | 0.00 | 0.00 | 71 | 1023.5 |
| 20260507172319 | 56 | 190 | 3.5 | 6.1 | 0.00 | 0.00 | 0.00 | 70 | 1023.3 |
| 20260507171814 | 57 | 171 | 4.3 | 9.6 | 0.00 | 0.00 | 0.00 | 69 | 1023.4 |
| 20260507171312 | 56 | 187 | 2.6 | 4.3 | 0.00 | 0.00 | 0.00 | 70 | 1023.5 |
| 20260507170809 | 56 | 206 | 2.6 | 4.3 | 0.00 | 0.00 | 0.00 | 72 | 1023.4 |
| 20260507170305 | 56 | 169 | 0.9 | 6.1 | 0.00 | 0.00 | 0.00 | 71 | 1023.5 |
| 20260507165801 | 56 | 256 | 2.6 | 5.2 | 0.00 | 0.00 | 0.00 | 72 | 1023.3 |
| 20260507165257 | 55 | 156 | 0.9 | 7.8 | 0.00 | 0.00 | 0.00 | 71 | 1023.4 |
| 20260507164753 | 55 | 222 | 2.6 | 2.6 | 0.00 | 0.00 | 0.00 | 72 | 1023.5 |
| 20260507164251 | 55 | 178 | 2.6 | 5.2 | 0.00 | 0.00 | 0.00 | 73 | 1023.6 |
| 20260507163748 | 55 | 189 | 2.6 | 5.2 | 0.00 | 0.00 | 0.00 | 73 | 1023.6 |
| 20260507163246 | 55 | 220 | 4.3 | 8.7 | 0.00 | 0.00 | 0.00 | 72 | 1023.6 |
| 20260507162741 | 54 | 172 | 4.3 | 6.1 | 0.00 | 0.00 | 0.00 | 74 | 1023.5 |
| 20260507162237 | 54 | 246 | 6.1 | 9.6 | 0.00 | 0.00 | 0.00 | 74 | 1023.4 |
| 20260507161734 | 54 | 241 | 2.6 | 4.3 | 0.00 | 0.00 | 0.00 | 74 | 1023.6 |
| 20260507161231 | 55 | 223 | 2.6 | 5.2 | 0.00 | 0.00 | 0.00 | 73 | 1023.7 |
| 20260507160726 | 54 | 210 | 3.5 | 5.2 | 0.00 | 0.00 | 0.00 | 75 | 1023.8 |
| 20260507160223 | 54 | 139 | 5.2 | 6.1 | 0.00 | 0.00 | 0.00 | 74 | 1023.6 |
| 20260507155719 | 54 | 232 | 2.6 | 7.8 | 0.00 | 0.00 | 0.00 | 75 | 1023.8 |
| 20260507155215 | 53 | 205 | 5.2 | 7.8 | 0.00 | 0.00 | 0.00 | 75 | 1023.7 |
| 20260507154712 | 53 | 214 | 3.5 | 5.2 | 0.00 | 0.00 | 0.00 | 77 | 1023.8 |
| 20260507154210 | 53 | 131 | 4.3 | 6.1 | 0.00 | 0.00 | 0.00 | 77 | 1023.6 |
| 20260507153707 | 52 | 174 | 3.5 | 5.2 | 0.00 | 0.00 | 0.00 | 79 | 1023.7 |
| 20260507153203 | 52 | 201 | 2.6 | 6.1 | 0.00 | 0.00 | 0.00 | 78 | 1024.0 |
| 20260507152659 | 52 | 212 | 3.5 | 5.2 | 0.00 | 0.00 | 0.00 | 78 | 1023.8 |
| 20260507152155 | 52 | 133 | 1.7 | 5.2 | 0.00 | 0.00 | 0.00 | 78 | 1023.7 |
| 20260507151651 | 52 | 134 | 4.3 | 5.2 | 0.00 | 0.00 | 0.00 | 78 | 1023.8 |
| 20260507151148 | 52 | 220 | 4.3 | 7.0 | 0.00 | 0.00 | 0.00 | 78 | 1023.8 |
| 20260507150645 | 53 | 212 | 3.5 | 5.2 | 0.00 | 0.00 | 0.00 | 77 | 1023.7 |
| 20260507150142 | 53 | 184 | 1.7 | 5.2 | 0.00 | 0.00 | 0.00 | 77 | 1023.6 |
| 20260507145637 | 53 | 229 | 2.6 | 4.3 | 0.00 | 0.00 | 0.00 | 78 | 1023.7 |
| 20260507145135 | 53 | 192 | 2.6 | 6.1 | 0.00 | 0.00 | 0.00 | 78 | 1023.9 |
| 20260507144631 | 52 | 195 | 2.6 | 6.1 | 0.00 | 0.00 | 0.00 | 78 | 1023.8 |
| 20260507144130 | 52 | 184 | 2.6 | 5.2 | 0.00 | 0.00 | 0.00 | 79 | 1023.7 |
| 20260507143626 | 52 | 206 | 2.6 | 5.2 | 0.00 | 0.00 | 0.00 | 79 | 1023.7 |
| 20260507143123 | 52 | 228 | 4.3 | 5.2 | 0.00 | 0.00 | 0.00 | 79 | 1023.6 |
| 20260507142618 | 52 | 217 | 3.5 | 5.2 | 0.00 | 0.00 | 0.00 | 80 | 1023.9 |
| 20260507142116 | 52 | 160 | 2.6 | 2.6 | 0.00 | 0.00 | 0.00 | 80 | 1023.7 |
| 20260507141612 | 52 | 230 | 1.7 | 2.6 | 0.00 | 0.00 | 0.00 | 79 | 1023.8 |
| 20260507141109 | 52 | 156 | 0.9 | 0.9 | 0.00 | 0.00 | 0.00 | 80 | 1023.7 |
| 20260507140605 | 52 | 175 | 0.9 | 1.7 | 0.00 | 0.00 | 0.00 | 80 | 1023.7 |
| 20260507135600 | 52 | 232 | 2.6 | 2.6 | 0.00 | 0.00 | 0.00 | 80 | 1023.6 |
| 20260507135057 | 52 | 162 | 1.7 | 4.3 | 0.00 | 0.00 | 0.00 | 80 | 1023.6 |
| 20260507134553 | 52 | 164 | 0.0 | 0.9 | 0.00 | 0.00 | 0.00 | 81 | 1023.6 |
| 20260507134050 | 52 | 178 | 3.5 | 4.3 | 0.00 | 0.00 | 0.00 | 81 | 1023.7 |
| 20260507133545 | 52 | 175 | 0.9 | 2.6 | 0.00 | 0.00 | 0.00 | 82 | 1023.3 |
| 20260507133044 | 52 | 179 | 0.9 | 1.7 | 0.00 | 0.00 | 0.00 | 82 | 1023.4 |
| 20260507132540 | 52 | 184 | 0.9 | 1.7 | 0.00 | 0.00 | 0.00 | 83 | 1023.4 |
| 20260507132036 | 51 | 171 | 0.9 | 1.7 | 0.00 | 0.00 | 0.00 | 82 | 1023.3 |
| 20260507131533 | 51 | 162 | 1.7 | 1.7 | 0.00 | 0.00 | 0.00 | 82 | 1023.4 |
| 20260507131031 | 51 | 188 | 1.7 | 4.3 | 0.00 | 0.00 | 0.00 | 82 | 1023.5 |
| 20260507130527 | 51 | 160 | 0.0 | 0.0 | 0.00 | 0.00 | 0.00 | 82 | 1023.4 |
| 20260507130026 | 51 | 167 | 0.9 | 1.7 | 0.00 | 0.00 | 0.00 | 82 | 1023.5 |
| 20260507125524 | 51 | 160 | 0.0 | 0.9 | 0.00 | 0.00 | 0.00 | 83 | 1023.4 |
| 20260507125021 | 51 | 161 | 0.0 | 1.7 | 0.00 | 0.00 | 0.00 | 83 | 1023.3 |
| 20260507124517 | 51 | 162 | 0.0 | 0.0 | 0.00 | 0.00 | 0.00 | 83 | 1023.6 |
| 20260507124015 | 51 | 146 | 0.0 | 0.9 | 0.00 | 0.00 | 0.00 | 84 | 1023.5 |
| 20260507123513 | 51 | 146 | 0.0 | 0.0 | 0.00 | 0.00 | 0.00 | 83 | 1023.5 |
| 20260507123010 | 51 | 167 | 0.0 | 0.9 | 0.00 | 0.00 | 0.00 | 82 | 1023.6 |
| 20260507122504 | 51 | 191 | 0.9 | 1.7 | 0.00 | 0.00 | 0.00 | 83 | 1023.8 |
| 20260507122001 | 51 | 163 | 0.0 | 0.9 | 0.00 | 0.00 | 0.00 | 83 | 1023.4 |
| 20260507121456 | 51 | 155 | 0.0 | 0.9 | 0.00 | 0.00 | 0.00 | 83 | 1023.5 |
| 20260507120953 | 51 | 97 | 0.9 | 0.9 | 0.00 | 0.00 | 0.00 | 83 | 1023.6 |
| 20260507120449 | 51 | 151 | 0.0 | 0.0 | 0.00 | 0.00 | 0.00 | 84 | 1023.5 |
| 20260507115946 | 51 | 151 | 0.0 | 0.9 | 0.00 | 0.00 | 0.00 | 84 | 1023.8 |